La Vergne, TN

5:28 AM CDT on August 28, 2016 (GMT -0500)
Smyrna

Weather History for KMQY - February, 2013

Change the Weather History Date:

Wednesday, February 13, 2013

  Actual Average Record
Temperature  
Mean Temperature 38 °F -  
Max Temperature 43 °F 49 °F 68 °F (2011)
Min Temperature 33 °F 34 °F 17 °F (2015)
Degree Days  
Heating Degree Days 27    
Moisture  
Dew Point 38 °F    
Average Humidity 93    
Maximum Humidity 100    
Minimum Humidity 79    
Precipitation  
Precipitation 0.14 in - - ()
Sea Level Pressure  
Sea Level Pressure 29.88 in    
Wind  
Wind Speed 4 mph (NNW)    
Max Wind Speed 16 mph    
Max Gust Speed -    
Visibility 6 miles    
Events Rain    
Averages and records for this station are not official NWS values.
T = Trace of Precipitation, MM = Missing Value Source: NWS Daily Summary

Daily Weather History Graph

Daily Weather History Graph

Search for Another Location

Airport or City:

Trip Planner

Search our weather history database for the weather conditions in past years. The results will help you decide how hot, cold, wet, or windy it might be!

Date:

Astronomy

Feb. 13, 2013 Rise Set
Actual Time 6:35 AM CST 5:25 PM CST
Civil Twilight 6:08 AM CST 5:52 PM CST
Nautical Twilight 5:38 AM CST 6:22 PM CST
Astronomical Twilight 5:09 AM CST 6:52 PM CST
Moon 8:12 AM CST (2/13) 9:18 PM CST (2/13)
Length of Visible Light 11h 43m
Length of Day
10h 50m
Waxing Crescent, 14% of the Moon is Illuminated
Feb 13
Waxing Crescent
Feb 17
First Quarter
Feb 25
Full
Mar 4
Last Quarter
Mar 11
New

Hourly Weather History & Observations

Time (CST) Temp. Windchill Dew Point Humidity Pressure Visibility Wind Dir Wind Speed Gust Speed Precip Events Conditions
12:56 AM 43.9 °F - 39.9 °F 86% 29.83 in 10.0 mi Calm Calm - 0.00 in   Overcast
1:56 AM 43.0 °F - 41.0 °F 93% 29.81 in 2.5 mi Calm Calm - 0.05 in Rain Heavy Rain
2:06 AM 42.8 °F - 39.2 °F 87% 29.78 in 5.0 mi Calm Calm - 0.01 in Rain Light Rain
2:47 AM 42.8 °F - 39.2 °F 87% 29.77 in 6.0 mi Calm Calm - 0.02 in Rain Light Rain
2:56 AM 41.9 °F 38.2 °F 39.9 °F 93% 29.80 in 5.0 mi NE 5.8 mph - 0.03 in Rain Rain
3:43 AM 41.0 °F 37.1 °F 39.2 °F 93% 29.74 in 9.0 mi NE 5.8 mph - 0.01 in   Overcast
3:56 AM 41.0 °F - 39.9 °F 96% 29.78 in 8.0 mi Calm Calm - 0.01 in Rain Light Rain
4:21 AM 41.0 °F - 39.2 °F 93% 29.74 in 2.0 mi Calm Calm - 0.00 in Rain Light Rain
4:28 AM 41.0 °F - 41.0 °F 100% 29.74 in 2.0 mi Calm Calm - 0.00 in Rain Light Rain
4:33 AM 41.0 °F - 41.0 °F 100% 29.74 in 2.0 mi Calm Calm - 0.00 in Rain Light Rain
4:40 AM 41.0 °F - 41.0 °F 100% 29.73 in 2.0 mi Calm Calm - 0.00 in   Overcast
4:56 AM 41.0 °F - 41.0 °F 100% 29.77 in 2.0 mi Calm Calm - 0.00 in   Overcast
5:19 AM 42.8 °F - 41.0 °F 93% 29.73 in 1.8 mi Calm Calm - N/A   Overcast
5:56 AM 41.9 °F - 41.9 °F 100% 29.78 in 1.2 mi Calm Calm - 0.01 in Rain Light Rain
6:06 AM 42.8 °F 38.6 °F 41.0 °F 93% 29.75 in 1.5 mi NNW 6.9 mph - 0.00 in Rain Light Rain
6:32 AM 41.0 °F 34.7 °F 41.0 °F 100% 29.76 in 1.8 mi NNW 10.4 mph - 0.01 in Rain Light Rain
6:56 AM 41.0 °F 35.2 °F 41.0 °F 100% 29.80 in 1.8 mi NNW 9.2 mph - 0.02 in Rain Light Rain
7:13 AM 41.0 °F 33.9 °F 39.2 °F 93% 29.76 in 1.5 mi North 12.7 mph - 0.00 in Rain Light Rain
7:56 AM 39.9 °F 31.8 °F 38.8 °F 96% 29.82 in 1.5 mi North 15.0 mph - 0.00 in   Overcast
8:56 AM 38.8 °F 32.1 °F 37.9 °F 97% 29.85 in 2.0 mi NNW 10.4 mph - N/A   Overcast
9:14 AM 37.4 °F 29.3 °F 37.4 °F 100% 29.83 in 1.2 mi NNW 12.7 mph - 0.00 in Rain Light Rain
9:24 AM 37.4 °F 29.3 °F 37.4 °F 100% 29.84 in 1.0 mi NNW 12.7 mph - 0.00 in Rain Light Rain
9:41 AM 37.4 °F 28.2 °F 37.4 °F 100% 29.86 in 1.5 mi NW 16.1 mph - 0.00 in Rain Light Rain
9:56 AM 37.9 °F 29.6 °F 36.9 °F 96% 29.91 in 1.5 mi NNW 13.8 mph - 0.01 in Rain Light Rain
10:06 AM 37.4 °F 28.9 °F 37.4 °F 100% 29.87 in 2.0 mi NNW 13.8 mph - 0.01 in Rain Rain
10:38 AM 39.2 °F 32.5 °F 37.4 °F 93% 29.86 in 4.0 mi North 10.4 mph - 0.01 in Rain Light Rain
10:56 AM 39.9 °F 33.9 °F 37.9 °F 93% 29.91 in 8.0 mi NNW 9.2 mph - 0.01 in   Overcast
11:56 AM 39.9 °F 32.1 °F 36.9 °F 89% 29.94 in 10.0 mi NNW 13.8 mph - N/A   Overcast
12:22 PM 41.0 °F 34.7 °F 37.4 °F 87% 29.90 in 10.0 mi NNW 10.4 mph - N/A   Mostly Cloudy
12:56 PM 41.9 °F 34.6 °F 36.9 °F 82% 29.93 in 10.0 mi North 13.8 mph - N/A   Overcast
1:56 PM 41.0 °F 33.9 °F 36.0 °F 82% 29.95 in 10.0 mi North 12.7 mph - N/A   Overcast
2:56 PM 41.0 °F 34.3 °F 36.0 °F 82% 29.97 in 10.0 mi NNW 11.5 mph - N/A   Overcast
3:56 PM 41.0 °F - 34.9 °F 79% 29.97 in 10.0 mi Calm Calm - N/A   Overcast
4:56 PM 41.0 °F 37.1 °F 34.9 °F 79% 29.99 in 10.0 mi WNW 5.8 mph - N/A   Overcast
5:56 PM 39.9 °F 36.7 °F 36.0 °F 86% 30.01 in 10.0 mi WNW 4.6 mph - N/A   Overcast
6:56 PM 39.9 °F - 34.9 °F 82% 30.03 in 10.0 mi Calm Calm - N/A   Mostly Cloudy
7:26 PM 37.4 °F - 35.6 °F 93% 29.99 in 10.0 mi Calm Calm - N/A   Scattered Clouds
7:56 PM 36.0 °F - 34.0 °F 93% 30.04 in 9.0 mi Calm Calm - N/A   Scattered Clouds
8:04 PM 35.6 °F - 33.8 °F 93% 30.00 in 10.0 mi Calm Calm - N/A   Mostly Cloudy
8:56 PM 36.9 °F - 36.0 °F 97% 30.05 in 10.0 mi Calm Calm - N/A   Overcast
9:43 PM 37.4 °F - 35.6 °F 93% 30.02 in 10.0 mi Calm Calm - N/A   Mostly Cloudy
9:56 PM 37.9 °F - 36.0 °F 93% 30.07 in 10.0 mi Calm Calm - N/A   Mostly Cloudy
10:56 PM 36.0 °F - 34.9 °F 96% 30.07 in 10.0 mi Calm Calm - N/A   Clear
11:23 PM 35.6 °F - 33.8 °F 93% 30.04 in 10.0 mi Calm Calm - N/A   Mostly Cloudy
11:46 PM 33.8 °F - 33.8 °F 100% 30.04 in 10.0 mi Calm Calm - N/A   Scattered Clouds
11:56 PM 34.0 °F - 34.0 °F 100% 30.08 in 10.0 mi Calm Calm - N/A   Partly Cloudy